This demonstration page uses our WeatherBlox Daily Observations layout. Learn more.

Left ArrowRight Arrow

39.51506, -84.39828

Hourly Observations for February 14, 2018

Temp ( °F °C ) Dew Point ( °F °C ) Humidity (%) Winds ( mph kmh ) Pressure ( in mb ) Visibility ( mi km ) Precip ( " mm )
12:15 am 00:15 Clear 37 2.7 34 1.3 91 91 SW 5 7 30.36 1028 10 16 0.00 0.00
12:35 am 00:35 Clear 36 2.4 34 1.2 92 92 SSW 6 9 30.36 1028 10 16 0.00 0.00
12:55 am 00:55 Clear 35 1.4 33 0.5 94 94 WSW 5 7 30.36 1028 7 11 0.00 0.00
1:15 am 01:15 Mostly Cloudy 33 0.6 32 0.1 97 97 WSW 3 6 30.36 1028 5 8 0.00 0.00
1:35 am 01:35 Cloudy 33 0.7 32 0.1 96 96 Calm 30.36 1028 7 11 0.00 0.00
1:55 am 01:55 Cloudy 36 2 35 1.4 96 96 WSW 5 7 30.36 1028 7 11 0.00 0.00
2:15 am 02:15 Cloudy 38 3.1 36 2 93 93 SW 5 7 30.36 1028 10 16 0.00 0.00
2:35 am 02:35 Cloudy 39 3.7 36 2.4 91 91 SW 3 6 30.36 1028 10 16 0.00 0.00
2:55 am 02:55 Cloudy 39 4 37 2.5 90 90 SW 3 6 30.36 1028 10 16 0.00 0.00
3:15 am 03:15 Cloudy 39 4.1 37 2.6 90 90 SW 5 7 30.36 1028 10 16 0.00 0.00
3:35 am 03:35 Cloudy 40 4.5 37 2.7 88 88 SW 6 9 30.33 1027 10 16 0.00 0.00
3:55 am 03:55 Cloudy 40 4.5 37 2.6 88 88 SW 7 11 30.33 1027 10 16 0.00 0.00
4:15 am 04:15 Cloudy 40 4.7 37 2.7 87 87 SSW 7 11 30.33 1027 10 16 0.00 0.00
4:35 am 04:35 Cloudy 40 4.2 36 2.4 88 88 SW 7 11 30.33 1027 10 16 0.00 0.00
4:55 am 04:55 Cloudy 40 4.7 37 2.7 87 87 SW 7 11 30.33 1027 10 16 0.00 0.00
5:15 am 05:15 Cloudy 40 4.7 37 2.7 87 87 SW 7 11 30.33 1027 10 16 0.00 0.00
5:35 am 05:35 Cloudy 41 5 37 2.9 86 86 SW 3 6 30.33 1027 10 16 0.00 0.00
5:55 am 05:55 Mostly Cloudy 40 4.5 37 2.5 87 87 SW 5 7 30.33 1027 10 16 0.00 0.00
6:15 am 06:15 Cloudy 40 4.3 37 2.7 89 89 SW 5 7 30.33 1027 10 16 0.00 0.00
6:35 am 06:35 Cloudy 40 4.7 37 2.9 88 88 WSW 3 6 30.33 1027 10 16 0.00 0.00
6:55 am 06:55 Cloudy 41 5.2 38 3.1 86 86 SW 7 11 30.33 1027 10 16 0.00 0.00
7:15 am 07:15 Cloudy 42 5.4 38 3.3 86 86 SW 6 9 30.33 1027 10 16 0.00 0.00
7:35 am 07:35 Cloudy 42 5.7 38 3.4 85 85 SSW 7 11 30.30 1026 10 16 0.00 0.00
7:55 am 07:55 Cloudy 43 6.1 38 3.5 84 84 SSW 7 11 30.27 1025 10 16 0.00 0.00
8:15 am 08:15 Cloudy 43 6.3 38 3.6 83 83 WSW 6 9 30.30 1026 10 16 0.00 0.00
8:35 am 08:35 Cloudy 43 6.3 39 3.8 84 84 SSW 6 9 30.30 1026 10 16 0.00 0.00
8:55 am 08:55 Cloudy 44 6.7 39 4 83 83 WSW 3 6 30.30 1026 10 16 0.00 0.00
9:15 am 09:15 Cloudy 44 6.9 39 4.1 83 83 SW 3 6 30.30 1026 10 16 0.00 0.00
9:35 am 09:35 Cloudy 45 7 40 4.2 83 83 SSW 3 6 30.30 1026 10 16 0.00 0.00
9:55 am 09:55 Cloudy 46 7.7 40 4.6 81 81 SSW 5 7 30.30 1026 10 16 0.00 0.00
10:15 am 10:15 Cloudy 46 8 41 4.9 81 81 SSW 5 7 30.27 1025 10 16 0.00 0.00
10:35 am 10:35 Cloudy 47 8.2 41 5.2 82 82 S 7 11 30.27 1025 10 16 0.00 0.00
10:55 am 10:55 Cloudy 47 8.2 43 5.9 86 86 S 7 11 30.27 1025 4 6 0.00 0.00
11:15 am 11:15 Cloudy 46 7.8 44 6.8 93 93 S 7 11 30.27 1025 2 2 0.00 0.00
11:35 am 11:35 Cloudy 46 7.9 45 7.3 96 96 S 5 7 30.24 1024 1 2 0.00 0.00
11:55 am 11:55 Cloudy 47 8.1 46 7.7 97 97 SSW 7 11 30.24 1024 1 2 0.00 0.00
12:15 pm 12:15 Cloudy 47 8.4 46 8 97 97 SSE 3 6 30.21 1023 1 2 0.00 0.00
12:35 pm 12:35 Cloudy 47 8.3 46 7.9 97 97 S 3 6 30.21 1023 2 2 0.00 0.00
12:55 pm 12:55 Cloudy 47 8.5 46 8 97 97 Calm 30.18 1022 3 4 0.00 0.00
1:15 pm 13:15 Cloudy 47 8.6 47 8.1 97 97 Calm 30.18 1022 3 5 0.00 0.00
1:35 pm 13:35 Cloudy 48 8.7 47 8.2 97 97 S 3 6 30.15 1021 3 4 0.01 0.25
1:55 pm 13:55 Cloudy 48 9 47 8.5 97 97 Calm 30.15 1021 2 3 0.01 0.25
2:15 pm 14:15 Cloudy 49 9.3 48 8.9 97 97 Calm 30.12 1020 3 4 0.01 0.25
2:35 pm 14:35 Cloudy with Nearby Thunderstorms 49 9.5 48 9.1 97 97 Calm 30.12 1020 3 5 0.01 0.25
2:55 pm 14:55 Cloudy 49 9.7 49 9.2 97 97 Calm 30.09 1019 2 3 0.02 0.51
3:15 pm 15:15 Cloudy 50 10.2 50 9.8 97 97 SSW 3 6 30.09 1019 2 3 0.00 0.00
3:35 pm 15:35 Cloudy 50 10.2 50 9.9 98 98 SW 5 7 30.06 1018 2 3 0.00 0.00
3:55 pm 15:55 Cloudy 51 10.5 50 10.2 98 98 WSW 3 6 30.06 1018 2 3 0.00 0.00
4:15 pm 16:15 Cloudy 51 10.8 51 10.5 98 98 WSW 5 7 30.06 1018 1 2 0.00 0.00
4:35 pm 16:35 Cloudy 51 10.7 51 10.6 99 99 SW 6 9 30.06 1018 1 1 0.00 0.00
4:55 pm 16:55 Cloudy 52 11.1 52 10.9 99 99 SW 5 7 30.06 1018 1 1 0.00 0.00
5:15 pm 17:15 Cloudy 52 11.3 52 11.1 99 99 SW 5 7 30.03 1017 1 1 0.01 0.25
5:35 pm 17:35 Cloudy 52 11.3 52 11.1 99 99 SW 5 7 30.03 1017 1 1 0.01 0.25
5:55 pm 17:55 Cloudy 53 11.4 52 11.3 99 99 SSW 6 9 30.03 1017 0 0 0.01 0.25
6:15 pm 18:15 Cloudy 53 11.8 53 11.7 99 99 SSW 6 9 30.03 1017 1 1 0.00 0.00
6:35 pm 18:35 Cloudy 54 12.1 54 12 99 99 SW 6 9 30.03 1017 1 1 0.00 0.00
6:55 pm 18:55 Cloudy 54 12.3 54 12.2 99 99 SW 5 7 30.00 1016 1 1 0.00 0.00
7:15 pm 19:15 Cloudy 55 12.5 54 12.4 99 99 SW 6 9 30.00 1016 1 1 0.01 0.25
7:35 pm 19:35 Cloudy 55 12.6 55 12.5 99 99 SW 6 9 30.00 1016 1 1 0.01 0.25
7:55 pm 19:55 Cloudy 55 12.7 55 12.6 99 99 SW 5 7 30.00 1016 1 1 0.01 0.25
8:15 pm 20:15 Cloudy 56 13.5 56 13.4 99 99 SW 9 15 30.00 1016 2 3 0.00 0.00
8:35 pm 20:35 Cloudy 57 13.8 57 13.7 99 99 SW 9 15 30.00 1016 2 3 0.01 0.25
8:55 pm 20:55 Cloudy 58 14.2 57 14.1 99 99 SW 12 19 30.00 1016 2 3 0.01 0.25
9:15 pm 21:15 Cloudy 58 14.4 58 14.3 99 99 SW 10 17 30.00 1016 3 4 0.00 0.00
9:35 pm 21:35 Cloudy 58 14.4 58 14.2 99 99 SSW 10 17 30.00 1016 2 3 0.01 0.25
9:55 pm 21:55 Cloudy 58 14.4 58 14.2 99 99 SSW 10 17 29.97 1015 3 4 0.01 0.25
10:15 pm 22:15 Cloudy 58 14.5 58 14.3 99 99 SW 12 19 29.97 1015 3 5 0.00 0.00
10:35 pm 22:35 Cloudy 58 14.6 58 14.3 98 98 SW 13 20 29.97 1015 5 8 0.00 0.00
10:55 pm 22:55 Cloudy 59 14.8 58 14.2 96 96 SW 16 26 29.97 1015 10 16 0.00 0.00
11:15 pm 23:15 Cloudy 58 14.7 57 14 96 96 SW 15 24 29.97 1015 10 16 0.00 0.00
11:35 pm 23:35 Cloudy 59 14.9 57 14 94 94 SW 13 20 29.94 1014 10 16 0.00 0.00
11:55 pm 23:55 Cloudy 59 14.8 57 13.9 94 94 SW 16 26 29.97 1015 10 16 0.00 0.00

Powered by AerisWeather